Overview Statistics Trail Chart Weather Telemetry Raw packets
 

This is the latest recevied weather packets stored in our database for station/object OK1TBM-13. If no packets are shown the sender has not sent any weather packets the latest 10 day(s).

<< 35 36 37 38 39 40 41 >>
Time Temp. Humidity Pressure Rain* Wind** Luminosity Snow
1788341402 23.33° C 53% 1020 hPa 0 mm - 636 W/m² -
1788340801 23.89° C 52% 1020 hPa 0 mm - 622 W/m² -
1788340501 24.44° C 51% 1020 hPa 0 mm - 179 W/m² -
1788340201 24.44° C 52% 1020 hPa 0 mm - 602 W/m² -
1788339902 24.44° C 52% 1020 hPa 0 mm - 594 W/m² -
1788339602 23.89° C 53% 1020 hPa 0 mm - 587 W/m² -
1788339001 23.89° C 51% 1020 hPa 0 mm - 568 W/m² -
1788338701 23.89° C 54% 1020 hPa 0 mm - 553 W/m² -
1788338402 23.33° C 55% 1020 hPa 0 mm - 544 W/m² -
1788338102 22.22° C 57% 1020 hPa 0 mm - 531 W/m² -
1788337802 22.22° C 57% 1020 hPa 0 mm - 521 W/m² -
1788337506 22.22° C 56% 1020 hPa 0 mm - 509 W/m² -
1788337201 21.67° C 57% 1020 hPa 0 mm - 498 W/m² -
1788336901 21.11° C 59% 1020 hPa 0 mm - 485 W/m² -
1788336301 21.11° C 61% 1020 hPa 0 mm - 458 W/m² -
1788336001 20.56° C 61% 1020 hPa 0 mm - 448 W/m² -
1788335101 22.22° C 57% 1020 hPa 0 mm - 410 W/m² -
1788334802 22.22° C 59% 1020 hPa 0 mm - 394 W/m² -
1788334501 21.11° C 57% 1020 hPa 0 mm - 380 W/m² -
1788334207 21.67° C 59% 1020 hPa 0 mm - 367 W/m² -
1788333901 21.11° C 64% 1020 hPa 0 mm - 358 W/m² -
1788333000 19.44° C 68% 1020 hPa 0 mm - 318 W/m² -
1788332702 19.44° C 69% 1020 hPa 0 mm - 304 W/m² -
1788332408 19.44° C 70% 1020 hPa 0 mm - 292 W/m² -
1788332100 18.33° C 71% 1020 hPa 0 mm - 275 W/m² -

* Rain latest hour (hover to see other rain measurements)
** Current wind speed in m/s (hover to see current wind gust speed)